Date String (YYYY-MM-DD hh:mm:ss) UTC,Instrument flags,Ambient pressure (hPa),Sample flow (lpm),Bypass flow (lpm),Sample temperature (°C),Ambient temperature (°C),ASC tube jacket temperature (°C),LED temperature (°C),Box temperature (°C),Sample RH (%),Span deviation,Mass concentration (μg/m³),Mass concentration (μg/m³),Mass concentration (μg/m³)
DateTimeUTC,F1_M11,P_M11,Q1_M11,Q2_M11,T1_M11,T2_M11,T3_M11,T4_M11,T5_M11,U1_M11,ZSPAN_M11,X0_M11,X2_M11,X1_M11
2022-07-12 16:00:00,,0830.5,5.00,0.00,29.7,28.6,00.0,38.4,31.6,32.5,0000.0,0018.82,0009.02,0007.73
2022-07-12 16:01:00,,0830.4,5.01,0.00,29.7,28.4,00.0,38.4,31.6,32.3,0000.0,0019.84,0009.03,0007.72
2022-07-12 16:02:00,,0830.4,5.01,0.00,29.7,27.8,00.0,38.3,31.5,32.4,0000.2,0020.86,0009.03,0007.73
2022-07-12 16:03:00,,0830.4,5.00,0.00,29.6,27.3,00.0,38.3,31.4,32.3,0000.0,0022.26,0008.98,0007.72
2022-07-12 16:04:00,,0830.4,5.00,0.00,29.6,27.3,00.0,38.3,31.3,32.2,0000.0,0022.46,0008.93,0007.71
2022-07-12 16:05:00,,0830.4,4.99,0.00,29.5,27.4,00.0,38.3,31.3,32.6,0000.0,0022.48,0008.88,0007.68
2022-07-12 16:06:00,,0830.4,4.99,0.00,29.5,27.5,00.0,38.3,31.3,32.8,0000.0,0022.72,0008.87,0007.63
2022-07-12 16:07:00,,0830.4,5.00,0.00,29.5,27.7,00.0,38.3,31.3,32.8,0000.0,0023.60,0008.90,0007.62
2022-07-12 16:08:00,,0830.4,5.00,0.00,29.5,27.8,00.0,38.3,31.3,32.8,0000.0,0026.10,0008.93,0007.63
2022-07-12 16:09:00,,0830.4,4.99,0.00,29.5,28.0,00.0,38.3,31.3,32.9,0000.0,0026.90,0008.97,0007.63
2022-07-12 16:10:00,,0830.4,5.01,0.00,29.5,28.1,00.0,38.3,31.4,33.0,0000.0,0026.85,0008.94,0007.64
2022-07-12 16:11:00,,0830.4,5.00,0.00,29.5,28.2,00.0,38.3,31.4,32.6,0000.0,0026.10,0008.92,0007.65
2022-07-12 16:12:00,,0830.4,5.00,0.00,29.6,28.4,00.0,38.3,31.5,32.7,0000.0,0025.74,0009.00,0007.67
2022-07-12 16:13:00,,0830.4,5.00,0.00,29.6,28.5,00.0,38.4,31.5,32.6,0000.0,0024.69,0009.02,0007.68
2022-07-12 16:14:00,,0830.3,5.01,0.00,29.6,28.2,00.0,38.3,31.5,32.8,0000.0,0023.49,0009.03,0007.67
2022-07-12 16:15:00,,0830.3,4.99,0.00,29.6,27.6,00.0,38.3,31.4,33.3,0000.0,0023.60,0009.05,0007.65
2022-07-12 16:16:00,,0830.3,5.00,0.00,29.6,27.2,00.0,38.2,31.4,33.0,0000.0,0024.04,0009.15,0007.68
2022-07-12 16:17:00,,0830.4,5.01,0.00,29.5,27.2,00.0,38.2,31.3,33.0,0000.0,0023.34,0009.15,0007.71
2022-07-12 16:18:00,,0830.3,5.00,0.00,29.5,27.4,00.0,38.2,31.3,33.0,0000.0,0022.02,0009.12,0007.72
2022-07-12 16:19:00,,0830.3,4.99,0.00,29.4,27.5,00.0,38.2,31.2,32.9,0000.0,0019.18,0009.07,0007.74
2022-07-12 16:20:00,,0830.3,5.00,0.00,29.4,27.7,00.0,38.2,31.3,33.0,0000.0,0018.48,0009.08,0007.77
2022-07-12 16:21:00,,0830.3,5.01,0.00,29.5,27.8,00.0,38.2,31.3,32.8,0000.0,0018.34,0009.13,0007.81
2022-07-12 16:22:00,,0830.3,5.00,0.00,29.5,28.0,00.0,38.2,31.3,32.6,0000.0,0018.62,0009.17,0007.83
2022-07-12 16:23:00,,0830.3,5.00,0.00,29.5,28.1,00.0,38.3,31.4,32.6,0000.0,0018.96,0009.15,0007.85
2022-07-12 16:24:00,,0830.2,4.99,0.00,29.5,28.3,00.0,38.3,31.4,32.5,0000.0,0019.31,0009.12,0007.87
2022-07-12 16:25:00,,0830.3,5.00,0.00,29.5,28.4,00.0,38.3,31.5,32.5,0000.0,0020.04,0009.14,0007.90
2022-07-12 16:26:00,,0830.3,5.00,0.00,29.6,28.5,00.0,38.3,31.5,32.5,0000.0,0019.91,0009.20,0007.94
2022-07-12 16:27:00,,0830.2,5.00,0.00,29.6,28.1,00.0,38.2,31.5,32.5,0000.9,0020.72,0009.22,0007.97
2022-07-12 16:28:00,,0830.2,5.00,0.00,29.6,27.5,00.0,38.2,31.4,32.6,0001.8,0021.22,0009.20,0007.99
2022-07-12 16:29:00,,0830.2,5.00,0.00,29.5,27.1,00.0,38.2,31.3,32.5,0001.8,0021.61,0009.22,0008.00
2022-07-12 16:30:00,,0830.2,5.00,0.00,29.5,27.2,00.0,38.2,31.2,32.9,0002.4,0023.25,0009.27,0008.00
2022-07-12 16:31:00,,0830.1,5.00,0.00,29.4,27.3,00.0,38.2,31.2,32.9,0000.0,0023.16,0009.28,0008.00
2022-07-12 16:32:00,,0830.1,5.01,0.00,29.4,27.5,00.0,38.2,31.2,33.1,0000.0,0023.00,0009.28,0007.99
2022-07-12 16:33:00,,0830.1,5.01,0.00,29.4,27.6,00.0,38.2,31.2,33.4,0000.0,0022.36,0009.29,0007.98
2022-07-12 16:34:00,,0830.1,4.99,0.00,29.4,27.8,00.0,38.2,31.3,33.3,0000.0,0021.39,0009.25,0007.98
2022-07-12 16:35:00,,0830.1,5.00,0.00,29.4,28.0,00.0,38.2,31.3,33.3,0000.0,0020.73,0009.28,0007.98
2022-07-12 16:36:00,,0830.1,5.01,0.00,29.5,28.1,00.0,38.2,31.4,33.1,0000.0,0019.96,0009.26,0007.98
2022-07-12 16:37:00,,0830.1,4.99,0.00,29.5,28.2,00.0,38.2,31.4,33.1,0000.0,0019.50,0009.20,0007.98
2022-07-12 16:38:00,,0830.1,5.01,0.00,29.5,28.4,00.0,38.3,31.5,33.0,0000.0,0018.80,0009.21,0007.98
2022-07-12 16:39:00,,0830.1,5.00,0.00,29.5,28.2,00.0,38.2,31.5,33.1,0000.0,0018.45,0009.27,0007.98
2022-07-12 16:40:00,,0830.1,4.99,0.00,29.5,27.5,00.0,38.2,31.4,33.2,0000.0,0019.09,0009.26,0007.99
2022-07-12 16:41:00,,0830.1,5.00,0.00,29.5,27.2,00.0,38.1,31.3,33.3,0000.0,0018.10,0009.25,0008.01
2022-07-12 16:42:00,,0830.1,5.00,0.00,29.4,27.1,00.0,38.2,31.2,33.5,0000.0,0017.84,0009.20,0008.01
2022-07-12 16:43:00,,0830.1,5.00,0.00,29.4,27.3,00.0,38.1,31.1,33.4,0000.0,0018.50,0009.15,0008.00
2022-07-12 16:44:00,,0830.1,5.00,0.00,29.4,27.4,00.0,38.1,31.1,33.5,0000.0,0019.56,0009.15,0008.00
2022-07-12 16:45:00,,0830.1,5.01,0.00,29.4,27.6,00.0,38.1,31.2,33.4,0000.0,0020.47,0009.17,0008.00
2022-07-12 16:46:00,,0830.1,4.99,0.00,29.4,27.7,00.0,38.1,31.2,33.4,0000.0,0020.80,0009.15,0007.99
2022-07-12 16:47:00,,0830.1,4.99,0.00,29.4,27.9,00.0,38.2,31.3,33.4,0000.0,0020.68,0009.14,0007.97
2022-07-12 16:48:00,,0830.1,5.01,0.00,29.4,28.1,00.0,38.2,31.3,33.3,0000.0,0020.96,0009.14,0007.95
2022-07-12 16:49:00,,0830.1,5.00,0.00,29.4,28.2,00.0,38.2,31.4,33.4,0000.0,0021.34,0009.13,0007.92
2022-07-12 16:50:00,,0830.1,4.99,0.00,29.5,28.3,00.0,38.2,31.4,33.3,0000.0,0022.04,0009.04,0007.87
2022-07-12 16:51:00,,0830.1,5.02,0.00,29.5,28.3,00.0,38.2,31.4,33.5,0000.0,0023.15,0009.03,0007.84
2022-07-12 16:52:00,,0830.1,4.99,0.00,29.5,27.7,00.0,38.1,31.4,33.8,0000.0,0022.55,0008.99,0007.79
2022-07-12 16:53:00,,0830.1,5.00,0.00,29.5,27.3,00.0,38.1,31.3,33.6,0000.0,0022.71,0009.01,0007.76
2022-07-12 16:54:00,,0830.1,5.00,0.00,29.4,27.2,00.0,38.1,31.2,33.8,0000.0,0023.88,0009.01,0007.73
2022-07-12 16:55:00,,0830.1,5.00,0.00,29.4,27.3,00.0,38.1,31.2,34.1,0000.0,0023.59,0008.95,0007.69
2022-07-12 16:56:00,,0830.1,5.00,0.00,29.3,27.4,00.0,38.1,31.1,33.7,0000.0,0022.93,0008.88,0007.65
2022-07-12 16:57:00,,0830.1,5.01,0.00,29.3,27.6,00.0,38.1,31.2,33.6,0000.0,0022.92,0008.87,0007.62
2022-07-12 16:58:00,,0830.1,5.00,0.00,29.4,27.7,00.0,38.1,31.2,33.3,0000.0,0022.87,0008.88,0007.60
2022-07-12 16:59:00,,0830.1,5.00,0.00,29.4,27.9,00.0,38.1,31.3,33.2,0000.0,0022.25,0008.87,0007.59
